Location: Oshawa
(43.9000°N, 78.8670°W)
Time: 03:00:57
(UTC-04:00)

S-56A Canister/Altair - All Passes

Search period start: 24 October 2014 00:00
Search period end: 02 November 2014 23:00
Orbit: 633 x 2503 km, 38.9° (Epoch: 20 October)

Date Brightness Start Highest point End Pass type
(mag) Time Alt. Az. Time Alt. Az. Time Alt. Az.
24 Oct - 01:03:34 10° W 01:15:24 55° SSW 01:23:19 10° SE visible
24 Oct - 03:11:35 10° W 03:18:33 22° SW 03:23:52 10° S night (unlit)
24 Oct - 18:15:08 10° S 18:26:28 27° SE 18:37:13 10° E daylight
24 Oct - 20:17:12 10° SW 20:31:35 53° SSE 20:43:33 10° E visible
24 Oct - 22:23:02 10° WSW 22:37:30 70° S 22:48:01 10° E visible
25 Oct - 00:30:16 10° W 00:42:52 59° SSW 00:51:24 10° ESE visible
25 Oct - 02:38:06 10° W 02:46:24 27° SW 02:52:32 10° SSE night (unlit)
25 Oct - 17:43:08 10° S 17:53:42 24° SE 18:04:04 10° E daylight
25 Oct - 19:44:24 10° SW 19:58:38 51° SSE 20:11:01 10° E visible
25 Oct - 21:49:50 10° WSW 22:04:37 69° S 22:15:45 10° E visible
25 Oct - 23:56:57 10° W 00:10:16 62° SSW 00:19:25 10° ESE visible
26 Oct - 02:04:40 10° W 02:14:11 31° SW 02:21:02 10° SSE night (unlit)
26 Oct - 17:11:19 10° S 17:20:59 21° SE 17:30:43 10° E daylight
26 Oct - 19:11:42 10° SW 19:25:40 48° SSE 19:38:23 10° E visible
26 Oct - 21:16:41 10° WSW 21:31:39 69° S 21:43:25 10° E visible
26 Oct - 23:23:39 10° W 23:37:34 65° SSW 23:47:21 10° ESE visible
27 Oct - 01:31:15 10° W 01:41:53 36° SW 01:49:25 10° SSE visible
27 Oct - 16:39:47 10° SSE 16:48:19 19° SE 16:57:05 10° E daylight
27 Oct - 18:39:08 10° SSW 18:52:43 45° SSE 19:05:38 10° E visible
27 Oct - 20:43:38 10° WSW 20:58:39 68° SSE 21:11:00 10° E visible
27 Oct - 22:50:22 10° W 23:04:46 68° S 23:15:13 10° ESE visible
28 Oct - 00:57:52 10° W 01:09:29 41° SW 01:17:42 10° SSE visible
28 Oct - 03:08:45 10° WSW 03:11:56 12° SW 03:14:48 10° SW night (unlit)
28 Oct - 16:08:37 10° SSE 16:15:43 16° SE 16:23:05 10° E daylight
28 Oct - 18:06:41 10° SSW 18:19:47 42° SE 18:32:47 10° E daylight
28 Oct - 20:10:39 10° WSW 20:25:36 66° SSE 20:38:30 10° E visible
28 Oct - 22:17:07 10° W 22:31:53 70° S 22:43:00 10° ESE visible
29 Oct - 00:24:29 10° W 00:36:59 46° SSW 00:45:53 10° SE visible
29 Oct - 02:34:05 10° W 02:39:49 16° SW 02:44:37 10° SSW night (unlit)
29 Oct - 15:38:07 10° SSE 15:43:10 13° SE 15:48:25 10° ESE daylight
29 Oct - 17:34:22 10° SSW 17:46:54 38° SE 17:59:49 10° E daylight
29 Oct - 19:37:46 10° WSW 19:52:31 64° SSE 20:05:55 10° E visible
29 Oct - 21:43:55 10° W 21:58:56 71° S 22:10:42 10° ESE visible
29 Oct - 23:51:08 10° W 00:04:24 51° SSW 00:13:58 10° SE visible
30 Oct - 02:00:02 10° W 02:07:37 20° SW 02:13:43 10° S night (unlit)
30 Oct - 17:02:12 10° SSW 17:14:04 35° SE 17:26:44 10° E daylight
30 Oct - 19:05:00 10° SW 19:19:27 62° SSE 19:33:14 10° E visible
30 Oct - 21:10:46 10° W 21:25:55 72° S 21:38:19 10° ESE visible
30 Oct - 23:17:49 10° W 23:31:42 55° SSW 23:41:57 10° SE visible
31 Oct - 01:26:14 10° W 01:35:21 24° SW 01:42:29 10° S visible
31 Oct - 16:30:10 10° SSW 16:41:17 32° SE 16:53:30 10° E daylight
31 Oct - 18:32:20 10° SW 18:46:23 59° SSE 19:00:27 10° E visible
31 Oct - 20:37:43 10° W 20:52:51 72° S 21:05:50 10° E visible
31 Oct - 22:44:33 10° W 22:58:55 59° SSW 23:09:51 10° SE visible
01 Nov - 00:52:35 10° W 01:03:00 28° SW 01:11:03 10° S visible
01 Nov - 15:58:19 10° S 16:08:35 28° SE 16:20:08 10° E daylight
01 Nov - 17:59:46 10° SW 18:13:20 56° SSE 18:27:35 10° E daylight
01 Nov - 20:04:44 10° WSW 20:19:44 72° S 20:33:16 10° E visible
01 Nov - 22:11:19 10° W 22:26:03 62° SSW 22:37:39 10° ESE visible
02 Nov - 00:19:02 10° W 00:30:33 32° SW 00:39:26 10° SSE visible
02 Nov - 14:26:38 10° S 14:35:57 24° SE 14:46:35 10° E daylight
02 Nov - 16:27:20 10° SW 16:40:20 53° SSE 16:54:37 10° E daylight
02 Nov - 18:31:51 10° WSW 18:46:35 72° S 19:00:37 10° E visible
02 Nov - 20:38:09 10° W 20:53:06 65° SSW 21:05:21 10° ESE visible
02 Nov - 22:45:34 10° W 22:58:00 37° SW 23:00:00 35° SSW visible
